Location: Buckeye Ditch
(40.9104°N, 122.9517°W)
Time: 15:17:07
(UTC+00:00)

A-11 Canister half - Pass Details

Date: 27 May 2025
Orbit: 1515 x 1684 km, 47.2° (Epoch: 14 June)

Event Time Altitude Azimuth Distance (km) Brightness Sun altitude
Rises 09:18:42 0° 285° (WNW) 4,750 11.5 -25.6°
Reaches altitude 10° 09:21:53 10° 289° (WNW) 3,745 11.0 -25.5°
Maximum altitude 09:31:13 62° 9° (N) 1,689 9.4 -24.9°
Drops below altitude 10° 09:40:22 10° 90° (E) 3,673 11.2 -24.2°
Sets 09:43:27 0° 94° (E) 4,655 11.8 -24.0°
